Погода в Трубчевске

Погода в Трубчевске : погода сейчас, прогноз погоды и архив. Всё, что Вы хотите узнать о погоде в Трубчевске!

Хотите узнать прогноз погоды в Трубчевске? Тогда Вам сюда: Погода в Трубчевске

Поиск расширенной информации на нашем сайте:

Другие новости

Новости СМИ2

Главная страница сайта

Новости сайта

03.07.2017

Напоминаем, что на нашем специализированном сайте Метеоцентр.Азия вы можете получить высокодетализированные автоматические прогнозы погоды по пунктам России, СНГ и мира в авиационном формате (включающие направление и скорость ветра, видимость, явления погоды, количество и форму облачности, нижнюю и верхнюю границу облачности).

Рекомендуем: Оконный супермаркет готовые окна металлопластиковые www.prosvet-okna.ru.

Погода в Трубчевске - сегодня

Время (UTC), дата Ветер
(°,м/с) 
Видим.   Явления Облачность Т
(°С)
Тd
(°С)
f(%) Тe
(°С)
Pmin
(гПа)
dP
(гПа)
Po
(мм)
O2
(г/м3)
Тmin Tmax R s Состояние
почвы
03 15.08.17 040 (СВ) 6000 м  дымка  10/10 480 м кучево-дожд. 
[Cb cap]
+18.8 +17.3 91 +32  1020.6  0.9  750  279  +18         
06 15.08.17 030 (СВ) 9000 м  дымка  10/10 480 м кучево-дожд. 
[Cb cap]
+19.2 +17.1 88 +33  1021.7  1.1  751  279  +18         
09 15.08.17 050 (СВ) 7000 м  слаб. морось  10/10 360 м 
[St]
+19.2 +17.4 89 +33  1022.7  751  279           
12 15.08.17 060 (СВ) 13000 м  {морось}  10/10 360 м 
[St]
+20.9 +17.7 82 +35  1022.9  0.3  752  277           
15 15.08.17 040 (СВ) 14000 м    3/3 300 м 
[Frnb]
+21.4 +17.3 77 +34  1023.1  0.2  752  277      0.0     
21 15.08.17 050 (СВ) 11000 м    4/0 средняя 
[Ac trans]
+18.3 +15.4 83 +29  1023.7  0.5  752  281           
00 16.08.17 050 (СВ) 16000 м    3/0 средняя 
[Ac trans]
+17.8 +12.8 73 +24  1023.9  752  282           
03 16.08.17 060 (СВ) 12000 м    3/0 средняя 
[Ac trans]
+16.1 +12.7 80 +22  1024.4  0.4  752  284  +15.9         
06 16.08.17 080 (В) 16000 м    ясно 
+20.1 +15.2 73 +29  1024.4  0.4  753  279  +15.9         
09 16.08.17 080 (В) 22000 м    3/3 1000 м 
[Cu med, cong]
+24.3 +16.1 60 +35  1024.2  0.1  753  275           
12 16.08.17 080 (В) 30000 м    3/3 1000 м 
[Cu med, cong]
+25.6 +12.7 45 +30  1023.8  -0.4  752  275           
15 16.08.17 070 (В) 30000 м    1/0 верхняя 
[Ci sp]
+25.1 +11.8 43 +29  1023.2  -0.7  752  275           
18 16.08.17 040 (СВ) 17000 м    1/0 верхняя 
[Ci sp]
+19.4 +13.8 70 +27  1023.4  -0.1  752  280    +25.8       
21 16.08.17 020 (С) 12000 м    ясно 
+16.4 +13.2 81 +24  1023.8  0.2  752  283           
00 17.08.17 050 (СВ) 11000 м    ясно 
+14.9 +12.2 84 +20  1023.4  -0.5  752  285           
03 17.08.17 040 (СВ) 6000 м  дымка  ясно 
+13.5 +12.2 92 +19  1023.6  752  286  +13.3         
06 17.08.17 070 (В) 13000 м    1/0 верхняя 
[Ci fib]
+19.9 +16.2 79 +32  1023.1  0.1  752  279  +13.3         
09 17.08.17 080 (В) 25000 м    1/0 верхняя 
[Ci fib]
+26.4 +16.6 55 +38  1022.8  0.1  752  273           
12 17.08.17 120 (ЮВ) 35000 м    4/4 1000 м 
[Cu med, cong]
+29 +12.1 35 +33  1021.7  -0.9  751  271           
15 17.08.17 120 (ЮВ) 30000 м    4/4 1000 м 
[Cu med, cong]
+28.1 +11.9 37 +32  1021.5  -0.4  751  272           
18 17.08.17 100 (В) 20000 м    ясно 
+21.4 +14.6 65 +29  1022.2  0.3  751  278    +29.2       
21 17.08.17 090 (В) 15000 м    ясно 
+18.4 +14.1 76 +27  1022.5  751  281           
00 18.08.17 040 (СВ) 11000 м    ясно 
+15.1 +12.4 84 +20  1022.9  0.2  751  284           
03 18.08.17 040 (СВ) 8000 м  дымка  4/0 верхняя 
[Ci sp]
+13.7 +12 89 +19  1023.1  751  286  +13.3         
06 18.08.17 070 (В) 19000 м    3/0 верхняя 
[Ci sp]
+20.4 +13.8 66 +27  1022.8  0.3  752  279  +13.3         
Время (UTC), дата Ветер
(°,м/с) 
Видим.   Явления Облачность Т
(°С)
Тd
(°С)
f(%) Тe
(°С)
Pmin
(гПа)
dP
(гПа)
Po
(мм)
O2
(г/м3)
Тmin Tmax R s Состояние
почвы

Для получения пояснительной информации подведите курсор к названию столбца.

ПОГОДА в Трубчевске - архив

Всё, что Вы хотите узнать о погоде в Трубчевске - удобно и подробно!

Выберите нужную дату (начиная с 1 января 2015* года) и нажмите кнопку "Найти".
Будут отображены архивные сводки погоды по пункту Трубчевск, начиная с указанной даты.


Отображать данные в формате CSV (для использования в таблицах Excel)


Внимание! Наш архив погоды предназначен исключительно для личного некоммерческого использования в познавательных целях. Если Вам необходимы официальные справки о состоянии погоды (для производственных, юридических, коммерческих и т.п. целей), обращайтесь в органы Росгидромета.

*Примечание: данная дата относится к архиву по метеостанциям СССР (Россия, СНГ, Балтия).
Архив по метеостанциям Зарубежной Европы и Азии (кроме Китая) хранится 10 дней, по другим регионам земного шара (Китай, Африка, Америка, Австралия, Океания) - 1 день.

Трубчевск - район местоположения метеостанции


Название, широта, долгота, высота метеостанции:
Трубчевск 52.6°ш. 33.8°д. 178 м над ур. моря [Российская Федерация]

Дополнительная информация

В oтличие oт бoльшинства пoгoдных сайтoв мы публикуем пoдрoбную метеoинфoрмацию в детальнoм прoфессиoнальнoм фoрмате.

Характеристики температуры и влажнoсти вoздуха измеряются на высoте 2 м в тени вдали oт зданий и деревьев.
Скoрoсть ветра измеряется на высoте 10 м (на урoвне рoста челoвека скoрoсть ветра ниже в 1.5-2 раза). Если метеoстанция нахoдится в гoрoде или в лесу, тo скoрoсть ветра занижена на 2-4 м/с пo сравнению с oткрытым местoм. Скoрoсть ветра над акватoриями крупных рек и oзёр, а также на вершинах хoлмoв на 2-5 м/с выше, чем в oбычных услoвиях.
Атмoсфернoе давление в разных тoчках местнoсти мoжет значительнo oтличаться oт давления на метеoстанции, в зависимoсти oт услoвий рельефа (при пoдъёме на 10 м давление пoнижается примернo на 1 мм рт.ст.).